Huvudsida
METAR-TAF:

METAR-TAF

Flygplatser :

Hasviks flygplats

Hasviks, Norge

latitud: 70-29N, longitud: 022-09E, höjd: 10 m

Aktuellt väderrapport

Denna rapport gjordes för 1 timme och 27 minuter sedan, klockan 14:20 UTC
Vind 15 kt från ost/sydost
Temperatur 14°C
Fuktighet 77%
Tryck 1006 hPa
Sikt 10 km eller mer
Inga moln under 1 500 m eller inga cumulonimbus

METAR: ENHK 161420Z 12015KT CAVOK 14/10 Q1006

Tid: 17:47 (15:47 UTC)


TAF: saknas

Aktuella väderrapporter och prognoser från 4000 flygplatser (METAR- och TAF-rapporter).

De tillgängliga stationerna syns som gula och röda prickar på kartan.

För musen över prickarna för att se namnen på stationerna.

Klicka sedan för att få väderrapporter och prognoser.

För att ändra kartan: Klicka på de gröna knapparna med ett svart kors på för att zooma in; den gröna knappen med ett streck på för att zooma ut; eller på de gröna pilarna för angränsande kartor.


METAR-TAF: